Wind_Speed
54 53 53 53 54 55 55 56 57 56 56 55 56 56 57 56 56 55 55 55 55 55 55 54 54 54 54 55 55 55 55 56 56 57 57 57 57 57
54 54 55 54 54 54 55 55 56 56 56 55 57 57 57 57 57 56 56 57 56 56 56 56 55 55 55 56 56 56 56 57 58 58 58 58 58 58
54 54 55 55 54 54 55 55 55 55 56 55 56 58 58 58 59 58 58 58 57 57 57 57 56 56 57 57 57 57 58 58 58 59 59 60 60 59
54 54 54 54 54 54 55 56 55 56 56 56 57 58 59 59 59 59 58 58 58 58 57 58 58 58 58 58 58 58 58 58 59 60 60 60 60 60
55 55 54 54 54 55 56 56 56 56 56 57 57 58 59 60 60 59 58 59 59 59 59 59 59 59 59 59 59 59 59 59 59 60 60 60 60 61
55 56 56 56 56 56 56 57 57 57 57 58 58 58 59 59 59 59 59 59 60 60 60 60 60 60 60 60 59 59 59 59 59 59 60 60 60 60
56 56 57 57 57 57 57 57 57 57 57 58 58 58 59 59 59 59 59 60 60 60 60 60 60 60 60 60 59 59 59 59 59 59 59 60 60 60
56 56 56 57 58 58 57 57 57 57 57 57 57 58 59 59 59 60 60 61 60 60 61 60 60 60 60 60 59 58 58 59 58 59 59 60 60 60
57 57 57 57 58 58 58 58 58 58 58 58 58 58 57 58 59 59 60 60 60 61 60 59 60 60 59 59 59 59 59 59 59 59 59 59 59 59
57 57 58 58 58 59 59 58 58 57 57 58 57 57 56 57 58 58 59 59 60 60 59 58 58 58 58 58 58 58 58 58 58 58 58 58 58 58
55 55 56 57 57 58 58 58 58 58 57 57 56 56 56 57 57 58 58 58 58 58 57 57 56 56 56 55 55 56 56 56 56 57 57 57 57 57
54 54 54 55 56 56 57 57 57 57 57 57 57 57 56 56 57 57 57 57 57 56 55 55 54 54 54 53 53 54 54 54 54 54 54 55 55 55
52 53 53 54 54 55 56 56 55 55 56 56 56 55 55 55 55 55 55 55 55 55 55 54 54 53 53 52 52 52 52 51 52 52 52 53 53 54
52 51 51 52 53 54 55 55 55 54 55 55 55 54 54 53 53 54 53 53 53 53 53 53 53 52 52 52 51 51 51 52 52 52 51 51 52 52
50 50 50 50 50 52 52 53 53 53 53 53 54 53 53 53 53 53 53 52 52 52 52 52 52 51 51 51 50 50 50 50 50 50 50 50 51 51
48 49 49 49 50 51 51 51 51 51 51 51 51 51 51 51 52 52 51 51 51 50 50 50 51 50 50 49 49 49 49 48 47 48 48 49 48 49
47 47 48 48 49 50 50 51 50 49 49 48 48 48 49 49 49 49 49 48 48 48 48 48 48 48 48 47 47 46 46 46 46 46 45 45 45 46
46 46 46 46 47 48 48 48 48 48 46 46 46 47 47 47 47 47 47 46 46 46 46 46 46 46 45 45 45 45 44 44 44 44 44 43 43 44
44 44 44 45 45 45 45 45 45 45 44 44 44 44 44 45 45 45 45 45 44 44 44 45 45 45 44 43 42 43 42 42 42 42 42 42 42 43
43 43 43 42 42 43 43 43 43 42 43 43 43 43 43 43 43 44 43 43 43 43 44 44 43 43 43 42 41 41 42 41 41 41 41 41 41 41
43 42 41 41 41 41 41 41 41 42 42 42 41 41 42 43 43 43 43 42 42 42 42 42 42 42 41 41 41 40 41 41 41 41 41 41 40 40
41 41 40 40 41 41 41 41 41 41 42 42 41 41 41 42 42 42 42 41 40 40 40 41 40 40 40 40 40 40 40 41 41 40 40 40 40 39
40 40 40 40 40 40 40 40 41 41 41 41 41 40 40 41 41 41 41 40 40 39 39 39 40 40 40 40 39 39 39 40 40 40 40 40 40 40
Wind_Direction
256 257 257 258 259 259 258 258 258 257 256 256 257 258 259 259 260 260 261 262 264 264 264 264 264 265 265 266 266 266 266 266 266 266 266 267 267 268
256 257 257 257 258 259 259 259 258 258 257 256 257 257 258 259 259 260 261 262 263 264 264 264 264 265 266 267 267 267 267 267 266 266 266 266 267 268
256 257 257 257 259 259 259 259 260 259 259 258 258 257 258 259 259 259 261 263 263 263 264 264 265 265 266 266 267 268 268 268 267 266 266 266 267 267
257 257 257 258 259 259 258 259 259 259 260 259 259 258 258 259 260 260 261 262 262 263 264 264 265 266 267 267 268 268 268 268 268 267 266 266 267 267
257 257 258 259 259 259 259 259 259 259 260 260 260 260 260 260 260 260 261 262 262 262 263 264 265 266 267 267 268 268 269 269 268 267 267 267 267 267
258 258 258 259 259 259 259 260 260 260 260 260 260 260 261 260 260 261 261 262 262 262 263 264 265 267 267 268 268 269 269 269 268 267 267 266 266 266
258 258 259 259 259 259 259 260 259 260 260 261 261 261 260 261 261 260 261 262 262 262 263 264 265 267 267 267 267 268 269 268 267 266 267 267 266 266
258 258 258 259 258 258 259 260 260 260 260 261 262 262 262 262 261 260 261 261 261 263 263 264 265 266 266 267 267 267 268 268 267 267 268 267 267 267
259 259 258 258 259 258 259 260 260 260 261 261 262 263 262 262 261 261 261 261 261 262 262 263 265 266 266 267 267 267 268 267 267 267 268 267 267 266
259 259 258 258 259 259 259 260 260 260 260 261 263 263 262 262 262 262 261 261 261 262 263 264 264 265 266 266 266 267 268 267 267 267 268 267 267 267
259 259 260 259 259 259 259 259 259 259 260 261 262 262 262 261 262 261 262 261 261 262 262 263 263 264 264 265 266 267 268 267 267 268 268 267 267 267
259 259 260 259 258 259 259 259 259 259 259 260 261 262 261 261 261 262 262 262 261 261 261 262 263 263 263 264 266 267 267 268 267 267 268 267 268 268
260 260 260 259 258 258 258 259 259 259 259 260 260 261 261 260 260 261 262 261 261 260 260 261 262 263 264 264 264 266 267 267 269 269 268 268 268 269
261 261 260 259 258 258 258 258 258 259 259 259 259 259 259 259 259 260 261 261 261 260 260 261 262 262 263 264 264 264 266 267 268 269 269 270 269 269
261 260 260 259 258 257 258 258 259 259 259 259 259 259 259 259 259 259 260 261 260 260 260 261 262 262 263 264 265 265 266 267 268 269 269 270 270 270
260 259 259 259 259 258 258 258 258 259 258 259 258 258 257 258 258 258 259 260 259 259 259 260 261 262 263 264 264 265 265 266 267 268 268 269 269 270
259 259 259 259 258 258 257 257 257 257 257 257 256 256 256 257 257 257 258 259 259 259 259 260 261 262 263 264 264 264 265 266 267 267 268 269 270 271
259 259 258 258 258 257 257 257 256 255 255 256 256 257 256 256 256 257 258 258 258 258 259 259 260 262 263 264 265 265 265 266 267 267 268 269 270 271
258 258 258 257 256 255 255 255 255 255 255 255 255 256 255 255 256 256 256 257 257 257 258 260 260 261 262 262 264 265 266 266 265 266 267 269 270 271
257 257 257 256 255 254 253 253 254 254 254 254 255 255 255 255 255 255 255 256 257 257 257 259 261 261 261 261 262 263 265 266 266 266 268 269 270 271
258 257 256 256 255 254 253 253 254 254 253 254 255 254 254 255 255 254 254 255 256 256 257 258 259 260 260 261 263 263 264 265 266 266 266 268 270 272
257 257 256 256 255 255 254 254 254 253 253 253 253 254 254 254 254 254 254 254 255 256 257 258 258 259 260 262 263 264 265 266 266 267 267 269 270 271
256 255 255 255 255 254 254 253 253 253 253 253 253 253 253 253 253 253 254 254 254 255 256 257 258 259 260 262 263 264 265 266 267 268 269 270 271 271
Height
5634 5635 5637 5639 5640 5642 5644 5646 5648 5651 5653 5655 5657 5659 5660 5662 5664 5666 5667 5669 5670 5671 5672 5673 5674 5675 5675 5676 5676 5677 5677 5678 5678 5679 5680 5680 5681 5682
5619 5621 5623 5625 5626 5627 5629 5630 5632 5635 5638 5640 5641 5643 5645 5647 5649 5651 5652 5654 5655 5656 5657 5658 5659 5659 5660 5660 5661 5661 5661 5661 5662 5662 5663 5664 5665 5665
5605 5606 5608 5610 5611 5613 5614 5616 5617 5619 5622 5625 5625 5627 5629 5631 5633 5635 5636 5638 5639 5641 5641 5642 5643 5644 5644 5644 5645 5645 5645 5645 5645 5645 5646 5647 5647 5649
5590 5591 5593 5594 5596 5598 5600 5601 5603 5604 5606 5609 5610 5611 5612 5614 5617 5619 5620 5622 5624 5625 5626 5627 5627 5628 5628 5628 5628 5628 5628 5628 5628 5628 5629 5631 5631 5631
5575 5576 5578 5579 5581 5583 5584 5586 5588 5589 5590 5592 5594 5595 5596 5598 5600 5602 5604 5606 5608 5609 5610 5611 5611 5611 5611 5611 5611 5611 5611 5611 5611 5611 5611 5612 5613 5613
5559 5561 5562 5564 5566 5567 5569 5570 5572 5573 5575 5576 5578 5579 5580 5581 5583 5586 5588 5589 5591 5593 5594 5594 5595 5595 5595 5595 5595 5594 5593 5592 5592 5593 5593 5594 5595 5596
5543 5545 5546 5548 5550 5551 5553 5555 5556 5557 5559 5560 5562 5563 5565 5566 5568 5570 5571 5573 5575 5575 5577 5578 5579 5579 5577 5577 5577 5576 5576 5575 5575 5575 5576 5577 5578 5578
5526 5528 5530 5531 5533 5535 5537 5538 5540 5541 5543 5545 5546 5547 5549 5550 5551 5552 5554 5556 5559 5561 5561 5561 5561 5562 5561 5561 5560 5559 5559 5558 5558 5559 5559 5560 5561 5561
5509 5511 5513 5515 5517 5518 5520 5522 5523 5524 5526 5528 5530 5531 5533 5534 5535 5536 5537 5539 5542 5543 5543 5545 5545 5545 5545 5544 5544 5543 5543 5542 5542 5542 5542 5543 5544 5544
5492 5494 5496 5498 5500 5501 5503 5505 5506 5508 5510 5511 5514 5515 5516 5517 5518 5519 5520 5522 5524 5525 5526 5528 5529 5529 5529 5528 5528 5527 5527 5526 5526 5526 5526 5527 5527 5528
5475 5477 5479 5481 5483 5484 5486 5488 5490 5491 5492 5494 5496 5497 5498 5500 5500 5502 5503 5505 5507 5509 5509 5511 5512 5512 5513 5513 5512 5512 5511 5511 5511 5511 5511 5511 5511 5512
5459 5460 5462 5464 5465 5466 5468 5471 5473 5475 5476 5478 5479 5481 5482 5483 5484 5485 5487 5488 5490 5493 5493 5494 5496 5496 5498 5499 5498 5497 5497 5496 5496 5496 5496 5496 5496 5496
5442 5444 5446 5447 5449 5450 5452 5454 5457 5458 5460 5461 5463 5464 5466 5467 5468 5470 5471 5473 5475 5477 5478 5479 5480 5481 5482 5484 5484 5483 5482 5482 5482 5482 5481 5481 5481 5481
5426 5428 5430 5431 5433 5434 5436 5438 5440 5441 5443 5445 5447 5449 5451 5452 5453 5454 5456 5458 5459 5461 5462 5463 5465 5466 5467 5468 5470 5469 5469 5468 5468 5468 5467 5467 5466 5466
5410 5412 5414 5415 5417 5419 5420 5422 5423 5425 5427 5429 5432 5434 5435 5437 5438 5439 5441 5442 5443 5445 5447 5448 5450 5451 5452 5453 5454 5455 5455 5454 5454 5453 5453 5452 5452 5452
5394 5396 5398 5399 5401 5403 5405 5406 5408 5410 5412 5414 5416 5418 5419 5421 5423 5425 5426 5427 5429 5431 5432 5434 5435 5437 5438 5439 5440 5440 5440 5440 5440 5439 5439 5438 5438 5437
5379 5381 5383 5384 5386 5387 5389 5391 5393 5395 5397 5399 5401 5403 5405 5407 5408 5410 5412 5413 5415 5417 5419 5420 5421 5422 5424 5425 5425 5426 5426 5426 5426 5426 5425 5425 5424 5424
5365 5367 5368 5369 5371 5372 5374 5376 5378 5381 5383 5385 5387 5389 5391 5393 5395 5396 5398 5400 5402 5404 5405 5407 5408 5409 5410 5411 5412 5413 5413 5413 5413 5413 5413 5413 5413 5412
5350 5352 5354 5355 5357 5359 5361 5363 5365 5367 5369 5371 5373 5375 5377 5379 5381 5383 5385 5387 5388 5390 5392 5394 5395 5396 5397 5399 5400 5399 5400 5400 5400 5400 5400 5400 5401 5400
5336 5338 5340 5342 5343 5346 5348 5350 5352 5354 5356 5358 5360 5362 5364 5366 5368 5370 5372 5374 5376 5377 5379 5380 5382 5383 5385 5387 5387 5388 5387 5388 5388 5389 5389 5388 5388 5388
5323 5325 5327 5329 5331 5333 5335 5337 5339 5341 5343 5345 5347 5349 5351 5354 5355 5357 5359 5361 5363 5365 5367 5368 5369 5371 5372 5374 5375 5376 5376 5376 5376 5377 5377 5377 5377 5376
5311 5313 5314 5316 5318 5320 5322 5324 5327 5329 5331 5333 5335 5337 5339 5341 5343 5345 5347 5349 5351 5352 5354 5356 5357 5359 5360 5362 5363 5364 5364 5364 5364 5364 5365 5365 5364 5364
5298 5300 5302 5304 5306 5308 5310 5312 5314 5316 5319 5321 5323 5324 5326 5328 5331 5333 5335 5337 5339 5340 5342 5344 5346 5347 5348 5350 5351 5352 5352 5353 5353 5353 5353 5352 5352 5351